Showing default

SIRION PATHFINDER-2, 43759

Orbit data source: Space-Track

SIRION PATHFINDER-2, 43759 is an American payload satellite in SSO that was launched on Mon, 03 Dec 2018 UTC via an FALCON 9 launch vehicle from the Air Force Western Test Range (AFWTR). Payload-class satellites include a variety of spacecraft equipped with specific instruments for various scientific and technological missions. These include communications satellites like Starlink; space stations such as the ISS; scientific satellites like the Hubble; Earth observation satellites from companies like Planet Labs, Umbra, and HawkEye 360; GPS; miniature CubeSats for education and research; and military/defense satellites.

Loading next visibility...
Identifier
43759, 2018-099B
Orbit
SSO
Country
Flag of USUS
Related business
Manufacturer
Astro Digital
Mission
Operational Commercial Communications
Bus & Motor
CUBESAT 6U, Unknown motor
Mass
10 kg wet, 10 kg dry
Launch date (UTC)
2018-12-03 (8 years ago)
Launch vehicle
FALCON 9
Launch site
Air Force Western Test Range (AFWTR)
Object type
Payload
Rocket body
Debris
Shape & HBR
Box + 2 Pan, 0.6 m
Radar Cross Section
0.143 m², Medium (>0.1 m² and < 1m²)

Expand to show TLE details & history
Last TLE update: 1 day ago

TLE from 1 day ago
0 SIRION PATHFINDER-2
1 43759U 18099B   26235.36161355  .00003877  00000-0  21069-3 0  9999
2 43759  97.4207 282.8253 0010245  71.4638 288.7707 15.15040176422793
Epoch: 2026-08-23T08:40Z
TLE epoch observation values (Epoch: 2026-08-23T08:40:43.410Z)
Latitude
-0°
Longitude
-179.01434°
Altitude
521.671 km
Speed
7.604 km/s
True Right ascension
18h 51m 18s
True Declination
0° 00' 00"
Sunlit
Object was in full shadow at epoch
Visualization orbit readout
Latitude
Unknown
Longitude
Unknown
Altitude
Unknown
Speed
Unknown
Apparent Right ascension
Unknown
Apparent Declination
Unknown
Sunlit
N/A
Visualization observer readout
Local Sidereal Time
00:47:26
Azimuth
Unknown
Elevation
Unknown
Doppler factor
Unknown
Orbital elements
Apogee altitude
524.895 km
Perigee altitude
510.765 km
Semi-major axis
6,895.967 km
Eccentricity
0.00102
Inclination
97.4207°
RAAN
282.8253°
Arg. of periapsis
71.4638°
True anomaly
288.6595°
Mean anomaly
288.7707°
Eccentric anomaly
288.7151°
Mean motion
3.7901 °/min
Orbital period
94.98 mins
BSTAR
0.00021069
Loading maneuver chart data...
Computing Atmospheric mass density...
Loading historical data...
Loading historical data...
Loading historical data...
Loading historical data...
Loading historical data...
Loading historical data...
Loading historical data...

Documentation

Showing up to 5 results
|